TimeMST,TemperatureF,Dew PointF,Humidity,Sea Level PressureIn,VisibilityMPH,Wind Direction,Wind SpeedMPH,Gust SpeedMPH,PrecipitationIn,Events,Conditions,WindDirDegrees,DateUTC
1:51 AM,30.0,28.9,96,30.25,10.0,Calm,Calm,-,N/A,,Overcast,0,2012-11-24 08:51:00
2:51 AM,30.9,30.0,96,30.25,10.0,Calm,Calm,-,N/A,,Overcast,0,2012-11-24 09:51:00
3:40 AM,32.0,30.2,93,30.18,2.0,East,3.5,-,0.00,Snow,Light Snow,80,2012-11-24 10:40:00
3:51 AM,32.0,30.0,92,30.24,2.5,NE,3.5,-,0.00,Snow,Light Snow,50,2012-11-24 10:51:00
3:57 AM,32.0,30.2,93,30.18,3.0,ENE,3.5,-,0.00,Snow,Light Snow,60,2012-11-24 10:57:00
4:08 AM,32.0,30.2,93,30.18,2.0,NE,3.5,-,0.01,Snow,Light Snow,40,2012-11-24 11:08:00
4:20 AM,32.0,30.2,93,30.18,1.5,NNE,3.5,-,0.02,Snow,Light Snow,30,2012-11-24 11:20:00
4:41 AM,32.0,30.2,93,30.18,1.5,NNE,3.5,-,0.04,Snow,Light Snow,30,2012-11-24 11:41:00
4:51 AM,32.0,30.0,92,30.24,1.2,NE,3.5,-,0.05,Snow,Light Snow,50,2012-11-24 11:51:00
4:57 AM,32.0,30.2,93,30.17,1.0,NE,3.5,-,0.01,Snow,Light Snow,50,2012-11-24 11:57:00
5:22 AM,32.0,30.2,93,30.17,1.2,NNW,3.5,-,0.04,Snow,Light Snow,340,2012-11-24 12:22:00
5:51 AM,32.0,30.9,96,30.24,1.5,Calm,Calm,-,0.08,Snow,Light Snow,0,2012-11-24 12:51:00
6:01 AM,32.0,30.2,93,30.17,1.2,North,3.5,-,0.02,Snow,Light Snow,350,2012-11-24 13:01:00
6:28 AM,32.0,32.0,100,30.16,2.0,Calm,Calm,-,0.05,Snow,Light Snow,0,2012-11-24 13:28:00
6:36 AM,32.0,30.2,93,30.16,3.0,Calm,Calm,-,0.05,Snow,Light Snow,0,2012-11-24 13:36:00
6:51 AM,32.0,30.9,96,30.23,10.0,NNW,3.5,-,0.05,,Overcast,330,2012-11-24 13:51:00
7:09 AM,32.0,30.2,93,30.16,10.0,Calm,Calm,-,0.00,,Overcast,0,2012-11-24 14:09:00
7:51 AM,32.0,30.9,96,30.24,4.0,Calm,Calm,-,0.00,,Overcast,0,2012-11-24 14:51:00
8:02 AM,32.0,32.0,100,30.17,2.0,Calm,Calm,-,0.01,,Overcast,0,2012-11-24 15:02:00
8:04 AM,32.0,32.0,100,30.16,1.8,Calm,Calm,-,0.01,,Overcast,0,2012-11-24 15:04:00
8:10 AM,32.0,32.0,100,30.16,1.5,Calm,Calm,-,0.01,,Overcast,0,2012-11-24 15:10:00
8:17 AM,32.0,30.2,93,30.16,2.0,Calm,Calm,-,0.01,,Overcast,0,2012-11-24 15:17:00
8:25 AM,32.0,32.0,100,30.16,2.0,Calm,Calm,-,0.01,,Overcast,0,2012-11-24 15:25:00
8:31 AM,32.0,32.0,100,30.17,2.5,Calm,Calm,-,0.01,,Overcast,0,2012-11-24 15:31:00
8:51 AM,32.0,30.9,96,30.25,4.0,Calm,Calm,-,0.02,,Overcast,0,2012-11-24 15:51:00
9:07 AM,33.8,30.2,87,30.17,5.0,NNE,3.5,-,N/A,,Overcast,20,2012-11-24 16:07:00
9:28 AM,33.8,32.0,93,30.18,2.0,Calm,Calm,-,0.00,Rain,Light Rain,0,2012-11-24 16:28:00
9:34 AM,33.8,32.0,93,30.18,1.5,Calm,Calm,-,0.00,Rain,Light Rain,0,2012-11-24 16:34:00
9:51 AM,33.1,32.0,96,30.27,1.8,Calm,Calm,-,0.00,,Overcast,0,2012-11-24 16:51:00
9:57 AM,33.8,30.2,87,30.19,2.0,Calm,Calm,-,0.01,,Overcast,0,2012-11-24 16:57:00
10:15 AM,33.8,32.0,93,30.19,3.0,Calm,Calm,-,0.01,Rain,Light Rain,0,2012-11-24 17:15:00
10:51 AM,33.1,32.0,96,30.27,5.0,Calm,Calm,-,0.01,,Overcast,0,2012-11-24 17:51:00
11:51 AM,34.0,33.1,96,30.25,10.0,SW,3.5,-,N/A,,Overcast,230,2012-11-24 18:51:00
12:00 PM,33.8,33.8,100,30.17,10.0,Calm,Calm,-,N/A,,Overcast,0,2012-11-24 19:00:00
12:19 PM,35.6,33.8,93,30.16,10.0,Calm,Calm,-,N/A,,Overcast,0,2012-11-24 19:19:00
12:38 PM,35.6,33.8,93,30.16,10.0,Calm,Calm,-,N/A,,Overcast,0,2012-11-24 19:38:00
12:51 PM,34.0,33.1,96,30.23,10.0,Calm,Calm,-,N/A,,Overcast,0,2012-11-24 19:51:00
1:05 PM,33.8,33.8,100,30.16,10.0,South,3.5,-,N/A,,Overcast,190,2012-11-24 20:05:00
1:31 PM,35.6,33.8,93,30.15,10.0,Calm,Calm,-,N/A,,Overcast,0,2012-11-24 20:31:00
1:51 PM,35.1,33.1,92,30.20,10.0,Calm,Calm,-,N/A,,Overcast,0,2012-11-24 20:51:00
2:03 PM,35.6,33.8,93,30.14,10.0,Calm,Calm,-,N/A,,Overcast,0,2012-11-24 21:03:00
2:14 PM,35.6,33.8,93,30.13,10.0,South,3.5,-,N/A,,Overcast,170,2012-11-24 21:14:00
2:37 PM,35.6,33.8,93,30.13,10.0,Calm,Calm,-,N/A,,Overcast,0,2012-11-24 21:37:00
2:51 PM,35.1,34.0,96,30.19,10.0,Calm,Calm,-,0.00,Rain,Light Rain,0,2012-11-24 21:51:00
3:20 PM,35.6,33.8,93,30.12,10.0,Calm,Calm,-,0.00,,Overcast,0,2012-11-24 22:20:00
3:51 PM,36.0,34.0,93,30.17,10.0,Calm,Calm,-,0.00,Rain,Light Rain,0,2012-11-24 22:51:00
4:15 PM,35.6,33.8,93,30.11,10.0,Calm,Calm,-,0.00,Rain,Light Rain,0,2012-11-24 23:15:00
4:51 PM,35.1,34.0,96,30.16,9.0,Calm,Calm,-,0.00,Rain,Light Rain,0,2012-11-24 23:51:00
5:02 PM,35.6,33.8,93,30.10,2.5,Calm,Calm,-,0.00,,Overcast,0,2012-11-25 00:02:00
5:18 PM,35.6,33.8,93,30.10,6.0,Calm,Calm,-,0.00,,Overcast,0,2012-11-25 00:18:00
5:51 PM,35.1,34.0,96,30.14,5.0,Calm,Calm,-,0.00,Rain,Light Rain,0,2012-11-25 00:51:00
6:51 PM,34.0,33.1,96,30.13,10.0,Calm,Calm,-,0.00,Rain,Light Rain,0,2012-11-25 01:51:00
6:59 PM,33.8,33.8,100,30.07,1.8,Calm,Calm,-,0.00,Rain,Light Rain,0,2012-11-25 01:59:00
7:04 PM,33.8,33.8,100,30.06,0.8,Calm,Calm,-,0.00,Rain,Light Rain,0,2012-11-25 02:04:00
7:36 PM,33.8,33.8,100,30.05,1.2,Calm,Calm,-,0.01,Rain,Light Rain,0,2012-11-25 02:36:00
7:51 PM,33.1,33.1,100,30.11,1.2,Calm,Calm,-,0.01,,Overcast,0,2012-11-25 02:51:00
7:59 PM,33.8,33.8,100,30.04,1.0,Calm,Calm,-,0.00,Rain,Light Rain,0,2012-11-25 02:59:00
8:06 PM,33.8,33.8,100,30.04,0.8,Calm,Calm,-,0.00,Rain,Light Rain,0,2012-11-25 03:06:00
8:33 PM,33.8,33.8,100,30.03,1.0,Calm,Calm,-,0.01,Rain,Light Rain,0,2012-11-25 03:33:00
8:39 PM,33.8,33.8,100,30.03,1.5,Calm,Calm,-,0.01,Rain,Light Rain,0,2012-11-25 03:39:00
8:51 PM,34.0,33.1,96,30.09,4.0,Calm,Calm,-,0.01,Rain,Light Rain,0,2012-11-25 03:51:00
9:51 PM,33.1,33.1,100,30.07,5.0,Calm,Calm,-,0.04,Rain,Light Rain,0,2012-11-25 04:51:00
10:02 PM,33.8,33.8,100,30.01,5.0,Calm,Calm,-,0.00,Rain,Light Rain,0,2012-11-25 05:02:00
10:51 PM,34.0,33.1,96,30.06,4.0,Calm,Calm,-,0.03,Rain,Light Rain,0,2012-11-25 05:51:00
11:51 PM,33.1,32.0,96,30.05,4.0,Calm,Calm,-,0.04,Snow,Light Snow,0,2012-11-25 06:51:00
11:58 PM,32.0,30.2,93,30.00,1.8,Calm,Calm,-,0.01,Snow,Light Snow,0,2012-11-25 06:58:00